Location: Bastogne Gables
(35.1554°N, 78.9900°W)
Time: 03:36:51
(UTC+00:00)

GPS 2-04 Rocket1 - Pass Details

Date: 29 October 2020
Orbit: 418 x 546 km, 35.6° (Epoch: 26 November)

Event Time Altitude Azimuth Distance (km) Brightness Sun altitude
Rises 23:31:47 0° 254° (WSW) 2,603 8.1 -14.4°
Reaches altitude 10° 23:33:58 10° 252° (WSW) 1,738 6.7 -14.9°
Maximum altitude 23:37:59 75° 168° (SSE) 549 2.7 -15.7°
Enters shadow 23:39:48 32° 88° (E) 933 3.4 -16.0°
